Weather observations for the past three days for
Kearney, Kearney Municipal Airport
Imperial (Metric)
Date Time (cdt) Wind (mph) Vis. (mi.) Weather Sky Cond. Temperature (ºF) Relative Humidity Wind Chill (°F) Heat Index (°F) Pressure Precipitation (in)
Air Dwpt 6 hour altimeter (in) sea level (mb) 1 hr 3 hr 6 hr
Max. Min.
23 05:56 W 5 7.00 Fair CLR 63 61 93% 30.1 1017.8
23 04:56 Calm 8.00 Fair CLR 63 61 93% 30.09 1017.6
23 03:56 Calm 9.00 Fair CLR 62.1 61 96% 30.09 1017.6
23 02:56 S 5 4.00 Fog/Mist CLR 61 60.1 97% 30.09 1017.6
23 01:56 SW 3 4.00 Fog/Mist CLR 63 63 100% 30.1 1017.7
23 00:56 S 3 9.00 Fair CLR 64 63 77 64 96% 30.11 1018.3
22 23:56 SW 3 10.00 Fair CLR 66 63 90% 30.11 1018.4
22 22:56 SE 5 10.00 Fair CLR 66.9 64 91% 30.1 1018.2
22 21:56 SE 5 10.00 Fair CLR 68 64 87% 30.09 1017.7
22 20:56 SE 5 10.00 Fair CLR 70 66 87% 30.07 1017.0
22 19:56 E 5 10.00 Fair CLR 75 64 69% 77 30.07 1016.8
22 18:56 E 7 10.00 Fair CLR 77 64 78.1 71.1 64% 79 30.06 1016.5
22 17:56 NE 5 10.00 Fair CLR 78.1 63 60% 80 30.06 1016.3
22 16:56 E 6 10.00 Fair CLR 78.1 62.1 58% 80 30.08 1017.1
22 15:56 E 7 10.00 Fair CLR 77 60.1 56% 79 30.09 1017.4
22 14:56 Vrbl 3 10.00 Fair CLR 75.9 62.1 62% 78 30.11 1018.1
22 13:56 SE 5 10.00 Fair CLR 73.9 62.1 67% 30.12 1018.6
22 12:56 SE 5 10.00 Partly Cloudy SCT100 71.1 62.1 71.1 63 73% 30.13 1018.9 0.08
22 11:56 E 5 10.00 Mostly Cloudy BKN100 66.9 61 81% 30.13 1019.1
22 10:56 E 8 10.00 Overcast OVC100 64.9 62.1 90% 30.14 1019.5
22 09:56 SE 3 10.00 Light Rain FEW050 BKN065 BKN100 64 63 96% 30.13 1019.2 0.07 0.08
22 08:56 N 7 10.00 Light Rain FEW045 BKN055 OVC120 64 61 90% 30.14 1019.4 0.01
22 07:56 E 9 10.00 Thunderstorm in Vicinity OVC045 64 62.1 93% 30.14 1019.4
22 06:56 NW 7 9.00 Thunderstorm in Vicinity BKN038 OVC060 64.9 63 66 62.1 93% 30.14 1019.1
22 05:56 NW 3 8.00 Overcast SCT034 BKN041 OVC050 64.9 63 93% 30.13 1018.9
22 04:56 Calm 8.00 Partly Cloudy SCT048 62.1 61 96% 30.12 1018.6
22 03:56 Calm 10.00 Fair CLR 64 62.1 93% 30.13 1018.7
22 02:56 Calm 10.00 Fair CLR 64.9 62.1 90% 30.13 1018.7
22 01:56 S 7 10.00 Fair CLR 64 63 96% 30.13 1018.9
22 00:56 S 7 9.00 Fair CLR 64.9 64 78.1 64.9 97% 30.14 1019.3
21 23:56 SE 3 10.00 Fair CLR 68 64.9 90% 30.15 1019.6
21 22:56 SE 5 10.00 Fair CLR 66.9 64.9 93% 30.16 1019.8
21 21:56 E 5 10.00 Fair CLR 70 66 87% 30.16 1019.8
21 20:56 E 5 10.00 Fair CLR 73 64.9 76% 30.14 1019.1
21 19:56 SE 3 10.00 Partly Cloudy SCT080 75.9 64.9 69% 78 30.13 1019.0
21 18:56 NE 3 10.00 Fair CLR 78.1 60.1 80.1 75 54% 79 30.14 1019.0
21 17:56 E 7 10.00 Fair CLR 79 60.1 52% 80 30.13 1018.8
21 16:56 E 7 10.00 A Few Clouds FEW038 79 63 58% 81 30.14 1019.1
21 15:56 NE 6 10.00 A Few Clouds FEW036 78.1 61 56% 80 30.15 1019.7
21 14:56 NE 9 10.00 A Few Clouds FEW032 78.1 64 62% 80 30.18 1020.5
21 13:56 Vrbl 6 10.00 Partly Cloudy FEW025 SCT036 77 64.9 66% 79 30.19 1020.9
21 12:56 E 6 10.00 Mostly Cloudy SCT021 BKN034 BKN044 75 64.9 75 63 71% 77 30.21 1021.6
21 11:56 E 8 10.00 Overcast SCT013 BKN019 OVC024 73 66.9 81% 30.22 1021.8
21 10:56 NE 7 10.00 Mostly Cloudy BKN013 BKN020 71.1 66 84% 30.21 1021.8
21 09:56 NE 7 10.00 Partly Cloudy SCT009 69.1 66 90% 30.21 1021.6
21 08:56 N 3 7.00 Mostly Cloudy BKN003 64.9 64.9 100% 30.21 1021.6
21 07:56 NW 6 0.50 Fog OVC001 64 63 96% 30.2 1021.3
21 06:56 NW 7 0.25 Fog OVC001 64 63 64.9 61 96% 30.19 1020.9
21 05:56 Calm 0.25 Fog OVC001 63 63 100% 30.18 1020.5
21 04:56 NW 5 0.50 Fog OVC001 62.1 61 96% 30.17 1020.2
21 03:56 NW 3 0.25 Fog OVC001 62.1 61 96% 30.18 1020.6
21 02:56 N 5 6.00 Fog/Mist CLR 62.1 62.1 100% 30.18 1020.7
21 01:56 W 5 7.00 Fair CLR 64 63 96% 30.19 1020.8
21 00:56 Calm 10.00 A Few Clouds FEW041 64.9 63 78.1 64 93% 30.18 1020.7 0.05
20 23:56 NE 3 10.00 Fair CLR 66 64.9 96% 30.18 1020.6
20 22:56 E 6 10.00 Fair CLR 66.9 64 91% 30.18 1020.7
20 21:56 Calm 10.00 Fair CLR 71.1 66.9 87% 30.16 1019.9 0.03 0.05
20 20:56 NE 7 10.00 Light Rain BKN041 BKN050 OVC085 72 66.9 84% 30.15 1019.4 0.02
20 19:56 SE 3 10.00 Partly Cloudy SCT048 73 66 79% 30.13 1018.8
20 18:56 N 8 10.00 Mostly Cloudy SCT035 BKN047 BKN055 78.1 64 79 72 62% 80 30.12 1018.5
20 17:56 NW 5 10.00 Mostly Cloudy SCT037 BKN048 BKN060 79 63 58% 81 30.12 1018.4
20 16:56 Calm 10.00 Mostly Cloudy SCT036 BKN045 79 64 60% 81 30.13 1018.7
20 15:56 NE 7 10.00 A Few Clouds FEW032 78.1 64 62% 80 30.14 1019.1
20 14:56 NE 8 10.00 Fair CLR 77 64 64% 79 30.15 1019.4
20 13:56 NE 6 10.00 Overcast FEW024 OVC044 73.9 64 71% 30.16 1020.0
20 12:56 NE 6 10.00 Overcast FEW025 OVC033 72 64 73 64 76% 30.16 1020.2
20 11:56 NE 7 10.00 Overcast BKN017 OVC022 70 64 82% 30.16 1019.8
20 10:56 E 7 10.00 Overcast FEW007 OVC018 68 64 87% 30.15 1019.7
20 09:56 N 8 9.00 Overcast OVC007 66 64 93% 30.14 1019.6
20 08:56 N 8 8.00 Overcast OVC003 64.9 63 93% 30.13 1019.1
20 07:56 N 8 1.75 Fog/Mist BKN002 OVC010 64 64 100% 30.12 1018.4
20 06:56 N 6 1.00 Fog/Mist OVC002 64 63 64 62.1 96% 30.11 1018.1 0.08
Date Time (cdt) Wind (mph) Vis. (mi.) Weather Sky Cond. Air Dwpt Max. Min. Relative Humidity Wind Chill (°F) Heat Index (°F) altimeter (in) sea level (mb) 1 hr 3 hr 6 hr
6 hour
Temperature (ºF) Pressure Precipitation (in)